{"data":{"norad_id":65900,"intl_designator":"2025-224U","name":"STARLINK-35264","alt_names":[],"object_type":"PAYLOAD","status":"ACTIVE","operator":null,"country":"US","launch_date":"2025-10-07","launch_site_code":"AFETR","launch_vehicle":null,"mission":null,"orbit_class":"UNKNOWN","rcs_meters":null,"size_class":null,"mass_kg":null,"dimensions":null,"purposes":["comms"],"wikipedia_slug":null,"has_3d_model":false,"image_url":null,"decayed_at":null,"tle_current":{"epoch":"2026-05-25T01:24:29.724768Z","epoch_age_seconds":66125,"freshness":"FRESH","line1":"1 65900U 25224U   26145.05867737  .00030340  00000+0  90498-3 0  9998","line2":"2 65900  53.1595  15.4193 0001092  98.1216 261.9911 15.34416714 36578","mean_motion":15.34416714,"eccentricity":0.0001092,"inclination_deg":53.1595,"raan_deg":15.4193,"arg_perigee_deg":98.1216,"mean_anomaly_deg":261.9911,"bstar":0.00090498,"rev_number":3657,"period_min":93.846735822248,"perigee_km":461.90654879823,"apogee_km":463.40057745722,"semimajor_km":6840.7905631277,"source":"CELESTRAK","updated_at":"2026-05-25T13:38:20.982782Z"}}}